2019-038AA (44410 NORAD) Tracking and Keplerian Element Data

This shows tracking and keplerian element data for the satellite.

Feedback or suggestion? Click here.




ElementValue
Catalog44410
Name2019-038AA
Epoch Orbit429
Epoch Day214.89155809
Epoch Year2019
RAAN176.2945
Inclination97.4917
Eccentricity0.0023395
Argument of Perigee148.5725
Mean Anonmoly211.6909
Mean Motion15.11920176
Decay Rate6.25E-06
L11 44410U 19038AA 19214.89155809 .00000625 00000-0 40035-4 0 9995
L22 44410 97.4917 176.2945 0023395 148.5725 211.6909 15.11920176 4296

Live tracking and technical data element details for 2019-038AA (NORAD 44410). 2019-038AA can be tracked NOW for your location showing map with azimuth and elevation plus other details from your city location.

Track the satellite on the map from your city or location and see movement details for azimuth, elevation, latitude, longitude, range, height, and movement on the map or in text.







IsCatalogInMostPopularTable: catalog: 44410, numindb: 16
Update: records affected: 1



GetName: 44410 2019-038AA

Hit Count: updated at: Wed, 23 Oct 2019 00:09:59 GMT